This is the latest recevied weather packets stored in our database for station/object AA0PB. If no packets are shown the sender has not sent any weather packets the latest 10 day(s).
| Time | Temp. | Humidity | Pressure | Rain* | Wind** | Luminosity | Snow |
|---|---|---|---|---|---|---|---|
| 1788140196 | 72° F | 54% | 763.3 mmHg | 0 in | - | 91 W/m² | - |
| 1788139895 | 72° F | 53% | 763.2 mmHg | 0 in | - | 100 W/m² | - |
| 1788139590 | 73° F | 52% | 763.2 mmHg | 0 in | - | 111 W/m² | - |
| 1788139286 | 73° F | 52% | 763.2 mmHg | 0 in | - | 124 W/m² | - |
| 1788138984 | 73° F | 52% | 763.1 mmHg | 0 in | - | 135 W/m² | - |
| 1788138680 | 74° F | 52% | 763.2 mmHg | 0 in | - | 146 W/m² | - |
| 1788138376 | 74° F | 50% | 763.2 mmHg | 0 in | - | 157 W/m² | - |
| 1788138072 | 75° F | 50% | 763.2 mmHg | 0 in | - | 167 W/m² | - |
| 1788137771 | 75° F | 49% | 763.3 mmHg | 0 in | - | 181 W/m² | - |
| 1788137466 | 74° F | 50% | 763.3 mmHg | 0 in | - | 181 W/m² | - |
| 1788137162 | 76° F | 49% | 763.3 mmHg | 0 in | - | 193 W/m² | - |
| 1788136857 | 76° F | 49% | 763.4 mmHg | 0 in | - | 212 W/m² | - |
| 1788136554 | 76° F | 47% | 763.3 mmHg | 0 in | - | 225 W/m² | - |
| 1788136249 | 76° F | 48% | 763.4 mmHg | 0 in | - | 237 W/m² | - |
| 1788135948 | 76° F | 47% | 763.3 mmHg | 0 in | - | 250 W/m² | - |
| 1788135643 | 76° F | 48% | 763.5 mmHg | 0 in | - | 263 W/m² | - |
| 1788135339 | 77° F | 47% | 763.5 mmHg | 0 in | - | 275 W/m² | - |
| 1788135035 | 77° F | 47% | 763.4 mmHg | 0 in | - | 262 W/m² | - |
| 1788134731 | 76° F | 47% | 763.3 mmHg | 0 in | - | 220 W/m² | - |
| 1788134430 | 76° F | 47% | 763.4 mmHg | 0 in | - | 168 W/m² | - |
| 1788134124 | 77° F | 47% | 763.4 mmHg | 0 in | - | 320 W/m² | - |
| 1788133819 | 76° F | 47% | 763.5 mmHg | 0 in | - | 335 W/m² | - |
| 1788133514 | 77° F | 47% | 763.5 mmHg | 0 in | - | 347 W/m² | - |
| 1788133210 | 77° F | 46% | 763.4 mmHg | 0 in | - | 358 W/m² | - |
| 1788132905 | 77° F | 46% | 763.3 mmHg | 0 in | - | 365 W/m² | - |
* Rain latest hour (hover to see other rain measurements)
** Current wind speed in m/s (hover to see current wind gust speed)